Starlink 31936

operational
NORAD ID: 59875 Int'l Des: 2024-098 Owner: SPXS Country: US Constellation: starlink
LEOCIRCULAR

Über Starlink 31936

Beschreibung wird geladen...

Live-Position

3D-Globus wird geladen...

Nächste Überflüge

Höhenverlauf

Altitude vs Time

uPlot chart will show altitude changes over time

Zweizeiliger Elementsatz

1 59875U 24098T 25350.69343712 .00003074 00000-0 12117-3 0 9996
2 59875 43.0028 354.3770 0000992 272.6173 87.4565 15.27585289 89510
Epoch: 16. Dez. 2025 • Age: 19 hours

Aktueller Status

Höhe 492.6 km
Geschwindigkeit 7.62 km/s
Subsatellitenpunkt -35.41°S, 46.04°E
Startdatum 24. Mai 2024
Alter 1.5 years
Typ internet

Technische Details

Klassifizierung Payload
Masse 730.00 kg
Trockenmasse 700.00 kg
Gesamtmasse 730.00 kg
Länge 0.30 m
Durchmesser 4.10 m
Spannweite 29.00 m
Form Box + pan
Hersteller SPXS
Bus-Typ Starlink V2M
Phasenstatus In Orbit
Besitzer/Staat SPXS/US

Große Konstellationen

Loading constellations...